This demonstration page uses our WeatherBlox Daily Observations layout. Learn more.

41.55636, -103.73856

Hourly Observations for May 18, 2017

Temp ( °F °C ) Dew Point ( °F °C ) Humidity (%) Winds ( mph kmh ) Pressure ( in mb ) Visibility ( mi km ) Precip ( " mm )
12:30 am 00:30 Cloudy 48 9 43 6 82 82 ENE 18 30 29.83 1010 10 16.0934 0 0
12:41 am 00:41 Cloudy 48 8.9 42 5.6 80 80 ENE 21 33 29.83 1010 10 16.0934 0 0
12:53 am 00:53 Cloudy 47 8.3 42 5.6 83 83 ENE 17 28 29.8 1009 10 16.0934 0 0
1:51 am 01:51 Cloudy 46 8 39 4 76 76 ENE 22 35 29.85 1011 10 16.0934 0 0
1:53 am 01:53 Cloudy 47 8.3 40 4.4 77 77 NE 18 30 29.78 1009 10 16.0934 0 0
2:53 am 02:53 Cloudy with Light Rain 46 7.8 41 5 83 83 ENE 26 43 29.78 1009 6 9.65604 0.02 0.508
3:11 am 03:11 Cloudy with Rain 45 7.2 42 5.6 90 90 NE 23 37 29.83 1010 5 8.0467 0.03 0.762
3:39 am 03:39 Cloudy with Light Rain 45 7.2 41 5 86 86 NE 25 41 29.85 1011 7 11.26538 0.09 2.286
3:53 am 03:53 Cloudy with Light Rain 45 7.2 41 5 86 86 NE 22 35 29.79 1009 6 9.65604 0.11 2.794
4:53 am 04:53 Cloudy with Light Rain 45 7.2 41 5 86 86 ENE 17 28 29.83 1010 9 14.48406 0.07 1.778
5:03 am 05:03 Cloudy with Rain 44 6.7 41 5 89 89 ENE 21 33 29.91 1013 5 8.0467 0.01 0.254
5:34 am 05:34 Cloudy with Light Rain 45 7 39 4 81 81 ENE 22 35 29.88 1012 8 12.87472 0 0
5:53 am 05:53 Cloudy with Light Rain 43 6.1 39 3.9 86 86 ENE 21 33 29.85 1011 8 12.87472 0.06 1.524
6:17 am 06:17 Cloudy with Light Rain 43 6.1 39 3.9 86 86 ENE 16 26 29.91 1013 10 16.0934 0.01 0.254
6:53 am 06:53 Cloudy 43 6.1 38 3.3 82 82 ENE 25 41 29.86 1011 10 16.0934 0.01 0.254
7:53 am 07:53 Cloudy 42 5.6 38 3.3 85 85 ENE 21 33 29.88 1012 10 16.0934 0 0.0254
8:01 am 08:01 Cloudy with Light Rain 42 5.6 38 3.3 85 85 ENE 20 31 29.94 1014 10 16.0934 0 0.0254
8:53 am 08:53 Cloudy 42 5.6 39 3.9 89 89 ENE 30 48 29.88 1012 7 11.26538 0 0.0254
9:53 am 09:53 Cloudy 42 5.6 38 3.3 85 85 ENE 26 43 29.89 1012 10 16.0934 0 0.0254
10:00 am 10:00 Cloudy 43 6 37 3 81 81 ENE 26 43 29.94 1014 10 16.0934 0 0
10:27 am 10:27 Cloudy 42 5.6 38 3.3 85 85 ENE 23 37 29.94 1014 10 16.0934 0 0
10:53 am 10:53 Cloudy 42 5.6 38 3.3 85 85 ENE 25 41 29.92 1013 10 16.0934 0 0.0254
11:53 am 11:53 Cloudy with Light Rain 41 5 38 3.3 89 89 ENE 23 37 29.93 1014 9 14.48406 0 0.0254
12:53 pm 12:53 Cloudy with Light Rain 41 5 37 2.8 86 86 E 20 31 29.95 1014 10 16.0934 0.02 0.508
1:53 pm 13:53 Cloudy with Light Rain 41 5 37 2.8 86 86 ENE 16 26 29.96 1015 7 11.26538 0.02 0.508
2:53 pm 14:53 Cloudy with Rain 40 4.4 36 2.2 86 86 NE 17 28 29.98 1015 4 6.43736 0.13 3.302
3:53 pm 15:53 Cloudy with Rain 38 3.3 34 1.1 86 86 NE 13 20 30.03 1017 3 4.82802 0.16 4.064
4:01 pm 16:01 Cloudy with Heavy Rain 38 3.3 34 1.1 86 86 NE 12 19 30.09 1019 1.75 2.816345 0.05 1.27
4:43 pm 16:43 Cloudy with Light Snow 33 0.6 31 -0.6 92 92 N 8 13 30.12 1020 1.5 2.41401 0.21 5.334
4:53 pm 16:53 Cloudy with Light Snow 34 1.1 31 -0.6 89 89 NNW 7 11 30.06 1018 1.75 2.816345 0.22 5.588
5:24 pm 17:24 Mostly Cloudy with Scattered Snow Showers 33 0.6 31 -0.6 92 92 NNW 8 13 30.12 1020 0.75 1.207005 0.07 1.778
5:28 pm 17:28 Cloudy with Light Snow 34 1 30 -1 87 87 NNW 7 11 30.12 1020 0.75 1.207005 0 0
5:40 pm 17:40 Cloudy with Light Snow 34 1 30 -1 87 87 NW 8 13 30.12 1020 1.25 2.011675 0 0
5:53 pm 17:53 Cloudy with Light Snow 33 0.6 31 -0.6 92 92 NW 8 13 30.06 1018 2 3.21868 0.1 2.54
5:57 pm 17:57 Cloudy with Light Snow 34 1.1 31 -0.6 89 89 NNW 9 15 30.12 1020 3 4.82802 0 0.0254
6:12 pm 18:12 Cloudy with Light Rain 34 1 32 0 93 93 NW 9 15 30.12 1020 8 12.87472 0 0
6:53 pm 18:53 Cloudy 35 1.7 33 0.6 93 93 NNW 9 15 30.06 1018 10 16.0934 0.01 0.254
7:53 pm 19:53 Cloudy 38 3.3 34 1.1 86 86 N 9 15 30.09 1019 10 16.0934 0 0
8:53 pm 20:53 Cloudy 40 4.4 36 2.2 86 86 NNE 12 19 30.09 1019 10 16.0934 0 0
9:53 pm 21:53 Cloudy 41 5 37 2.8 86 86 NNE 16 26 30.09 1019 10 16.0934 0 0
10:15 pm 22:15 Cloudy 41 5 36 2.2 82 82 NNE 18 30 30.12 1020 10 16.0934 0 0
10:29 pm 22:29 Cloudy 41 5 36 2.2 82 82 NNE 21 33 30.12 1020 10 16.0934 0 0
10:53 pm 22:53 Cloudy 41 5 36 2.2 82 82 NE 22 35 30.09 1019 10 16.0934 0 0
11:53 pm 23:53 Cloudy 41 5 36 2.2 82 82 NNE 17 28 30.1 1019 10 16.0934 0 0

Powered by AerisWeather